RH
81 85 78 79 93 95 91 95 95 87 92 89 95 93 87 90 86 77 81 84 87 88 87 94 95 97 90 92 96 97 86 89 91 91 86 84 87 95 92 80 82 80 86
75 83 79 85 97 94 85 96 94 87 84 94 95 96 94 94 94 87 81 81 84 97 95 95 97 97 93 93 98 98 88 88 90 90 92 90 84 90 84 87 87 90 90
81 86 81 87 96 95 94 96 95 87 81 84 93 95 95 94 94 95 94 87 92 98 97 96 97 96 95 94 95 98 96 84 80 78 80 77 87 87 87 85 93 95 96
83 86 88 78 90 90 90 81 93 83 73 74 89 95 95 96 95 94 98 98 99 98 98 96 98 90 88 87 92 97 90 79 74 71 62 66 72 90 94 97 96 99 95
84 90 87 77 88 86 91 81 83 79 75 78 77 83 90 82 81 91 94 97 95 95 94 92 94 92 88 91 95 96 86 77 76 64 71 72 72 85 95 97 98 93 87
85 88 86 80 88 79 73 75 81 76 81 79 81 91 93 94 91 83 87 86 95 94 90 92 90 89 90 92 98 79 81 78 71 70 76 84 80 95 94 96 95 94 92
87 92 90 78 92 88 76 71 75 76 81 83 87 97 95 95 95 94 89 81 84 86 90 92 93 92 92 98 92 84 79 78 64 62 66 80 94 98 98 94 93 93 96
96 95 92 88 91 87 81 72 75 75 81 87 84 92 94 94 88 85 84 89 92 95 94 94 91 93 96 100 91 90 88 86 78 79 86 87 91 98 99 92 91 94 95
100 96 94 97 95 81 75 80 83 83 85 86 89 94 94 89 88 82 86 86 90 96 96 94 95 96 98 93 91 88 90 86 84 84 83 92 89 95 95 97 96 94 95
100 100 97 97 92 89 90 93 92 93 90 94 99 98 92 94 92 78 79 84 93 93 96 95 97 99 95 91 90 88 89 86 82 81 83 92 91 98 95 93 95 96 96
100 96 100 99 93 98 99 100 98 98 96 96 97 99 100 100 98 95 93 79 94 96 98 99 99 92 90 91 90 86 90 95 95 91 95 94 94 98 100 100 100 97 95
100 100 100 100 100 100 100 100 100 99 100 97 99 98 95 99 100 100 100 99 100 100 100 98 98 94 93 93 90 86 86 93 99 95 99 91 97 99 99 99 98 99 100
100 100 100 100 100 99 100 99 95 92 94 92 91 92 90 92 97 98 99 100 100 99 100 100 97 89 85 82 80 82 87 96 100 100 95 95 98 100 100 99 98 98 99
100 99 100 100 100 100 96 94 90 87 88 90 90 91 93 95 96 98 100 99 100 99 99 97 92 84 77 75 76 80 90 99 100 100 100 100 100 100 100 99 100 99 100
100 100 100 100 99 99 96 92 89 86 86 86 88 87 85 89 88 98 100 100 99 94 88 80 80 82 82 84 82 88 95 100 100 100 99 100 99 100 100 100 100 100 100
100 100 100 100 100 100 98 92 89 88 85 89 86 81 82 81 82 84 88 94 91 88 88 89 88 90 91 91 93 96 98 100 100 100 99 100 100 99 99 99 99 98 99
96 100 100 100 99 100 100 97 94 89 86 87 84 77 74 73 74 76 78 79 79 87 90 92 93 96 96 98 98 99 100 100 100 99 96 96 97 98 97 95 94 93 92
95 99 100 100 100 100 100 99 97 92 84 81 78 73 74 74 75 78 80 88 92 93 98 100 100 100 98 95 91 90 78 80 88 94 90 87 85 91 95 91 87 84 84
94 96 98 99 99 99 97 95 93 91 89 82 81 76 72 72 67 73 83 94 97 90 91 96 87 87 63 46 34 32 31 31 35 45 54 64 73 78 83 92 91 88 83
88 92 95 96 94 92 90 90 83 76 75 71 72 71 72 62 49 41 57 75 90 97 95 92 75 52 36 31 29 33 34 34 31 27 28 30 37 48 58 66 72 84 87
81 82 90 95 92 88 84 70 59 55 50 51 44 44 41 37 37 33 48 69 81 82 70 51 40 36 34 36 32 33 32 31 31 31 30 31 32 31 30 30 38 62 76
72 74 76 85 91 83 78 68 62 49 41 38 36 36 36 33 32 32 37 49 55 52 46 43 41 40 38 32 30 27 28 28 32 32 31 32 32 32 32 30 30 35 52
65 69 70 74 84 81 79 70 65 55 49 44 39 37 37 31 27 28 36 42 49 46 43 40 40 37 38 46 32 30 26 24 28 35 34 30 31 33 35 34 35 36 40
60 64 68 70 80 81 79 78 73 63 58 52 50 46 46 43 32 29 34 37 45 47 44 40 40 36 34 36 43 36 40 28 25 30 36 36 32 29 33 33 35 43 50
64 64 68 73 76 83 84 86 84 78 76 61 63 54 38 39 34 28 34 41 47 49 45 42 40 40 34 37 35 41 38 35 29 24 30 36 36 34 34 35 37 47 54
73 69 73 75 76 84 87 92 89 90 92 65 56 51 52 51 47 36 31 36 38 41 44 43 43 40 41 38 39 36 34 28 30 30 28 33 30 35 35 35 37 41 49
Wind_Speed
12 14 17 17 15 14 13 13 15 15 14 15 15 16 17 18 20 20 20 21 24 26 26 23 23 24 24 23 23 24 25 25 24 24 26 25 24 23 23 24 24 24 25
16 14 18 18 15 14 15 14 15 17 17 16 17 17 17 18 20 21 21 21 22 24 24 24 24 25 24 23 23 23 24 25 26 27 27 27 24 21 22 23 24 24 24
17 16 20 20 16 15 15 15 16 17 15 16 17 18 18 19 21 22 21 20 22 24 24 25 26 25 24 23 24 24 26 26 26 25 22 20 20 22 22 21 24 23 23
18 17 19 22 19 17 16 15 15 17 17 16 17 17 18 19 21 22 21 21 22 24 25 26 26 28 25 25 24 24 26 26 26 24 19 19 19 20 20 22 22 23 22
19 18 20 25 21 19 17 16 15 16 19 18 19 16 17 19 22 23 22 20 22 25 28 28 26 27 27 25 23 23 25 24 23 19 18 18 19 20 21 22 21 20 20
17 18 22 24 22 21 20 18 17 16 19 20 22 18 19 22 25 27 26 24 19 24 27 27 26 26 26 24 24 26 25 23 19 17 16 16 17 20 21 21 20 21 21
15 17 18 24 22 21 20 20 20 19 20 22 23 21 19 23 25 26 27 23 21 20 26 26 26 26 24 24 24 25 24 21 17 17 16 14 16 19 20 20 20 20 20
15 15 17 22 22 22 20 20 21 22 22 24 25 25 24 24 23 24 24 26 28 27 28 28 26 24 23 23 25 23 22 20 16 16 14 15 18 19 20 20 19 20 19
14 16 18 21 22 23 20 19 20 24 26 26 28 28 28 25 24 23 27 27 29 27 27 27 26 24 24 25 24 22 23 19 16 16 15 14 20 20 19 20 19 19 17
16 14 18 20 22 21 23 24 25 26 27 26 25 26 27 22 21 23 22 26 28 28 26 26 25 24 26 26 25 24 23 18 15 14 14 14 17 19 20 19 19 19 18
20 20 17 19 23 24 26 31 31 31 32 31 29 30 27 22 21 19 20 24 28 28 28 27 25 27 28 28 26 24 19 16 15 14 15 18 21 23 24 24 24 23 21
21 23 25 26 27 32 33 31 29 31 27 26 26 27 19 18 21 21 26 28 30 28 28 28 27 28 24 21 23 20 18 17 16 16 17 23 27 30 30 31 29 28 28
20 25 27 32 34 38 35 26 19 19 22 22 23 23 24 27 24 29 30 31 31 30 25 25 29 20 18 16 15 17 17 17 18 21 19 22 26 27 28 27 27 26 26
23 25 28 32 36 35 34 27 25 22 22 22 22 23 24 27 28 28 31 32 30 22 20 21 23 22 19 17 17 17 19 22 31 29 25 28 28 28 27 26 25 25 24
26 28 28 33 34 35 34 32 28 26 24 23 24 24 25 28 24 28 27 28 27 22 22 21 21 24 23 22 21 22 24 29 34 36 34 31 29 27 26 24 23 23 24
25 32 31 28 33 37 36 31 30 27 26 25 25 26 27 29 28 27 27 25 22 23 24 24 24 27 27 28 28 27 28 30 34 35 35 33 30 27 25 23 22 22 22
27 34 34 32 28 26 31 31 28 26 27 26 26 27 27 25 26 27 28 27 25 23 27 27 28 29 31 30 30 29 26 28 31 35 36 33 32 28 24 21 21 22 23
21 32 37 32 31 28 26 27 26 24 25 26 27 27 27 26 24 25 26 26 27 27 26 26 31 31 32 30 27 26 18 22 23 27 25 27 24 24 24 20 21 21 21
18 22 32 33 32 29 27 25 24 24 24 26 28 27 26 24 24 24 26 28 27 27 26 27 28 33 32 28 26 22 17 15 15 15 15 15 18 17 18 20 21 22 20
15 19 29 31 30 29 27 25 23 22 23 25 26 27 26 26 26 27 28 28 29 29 30 31 32 28 27 25 24 20 16 14 14 14 14 13 15 16 14 14 16 19 20
16 16 27 30 29 31 30 28 27 28 24 24 24 25 26 26 28 29 30 32 33 32 32 29 29 30 25 27 23 21 17 14 14 12 12 12 13 13 12 12 12 13 16
14 14 17 24 27 25 26 25 20 29 26 25 24 24 26 26 28 31 33 34 35 35 32 32 32 28 24 20 12 15 5 6 9 10 10 10 11 10 11 11 11 11 11
9 12 12 20 25 22 21 24 19 21 21 22 21 23 25 26 27 30 31 34 30 30 32 34 31 29 23 14 21 7 4 4 13 5 7 7 8 8 9 9 9 10 10
5 7 8 15 23 23 20 19 19 10 11 9 20 26 26 26 27 27 30 30 28 24 25 26 26 21 23 22 14 5 6 15 4 6 6 6 6 6 7 7 8 9 10
7 2 4 7 15 19 19 18 19 14 8 11 15 13 21 21 22 25 26 25 25 23 23 23 22 18 18 18 12 10 9 10 9 6 7 11 7 5 5 6 7 8 8
15 10 6 7 9 12 15 16 16 14 12 13 14 12 10 15 13 18 23 24 23 23 24 24 21 18 17 16 10 10 11 6 12 7 7 18 13 9 7 6 7 7 7
Wind_Direction
179 172 174 174 174 172 170 171 172 172 176 174 174 171 164 161 158 158 157 153 145 137 135 134 132 125 122 121 119 117 122 117 117 118 114 111 114 106 101 98 98 95 90
167 174 176 172 173 174 171 177 176 179 172 177 173 172 168 164 160 159 159 157 152 144 140 135 130 127 122 123 124 120 122 124 119 117 112 112 114 111 111 110 108 101 95
167 175 175 173 172 176 174 183 180 181 173 177 172 170 169 166 161 157 157 157 151 146 141 136 132 125 124 119 120 120 122 123 122 111 109 111 110 110 107 116 110 104 98
168 172 175 181 173 181 176 184 185 179 178 178 167 163 168 167 161 153 150 151 148 142 137 132 130 129 125 119 118 122 124 123 115 109 113 114 114 112 108 108 107 102 96
173 174 179 179 175 181 182 181 183 179 178 177 165 163 168 160 154 144 137 140 144 140 134 130 129 131 127 122 118 123 127 123 113 118 118 120 119 117 114 108 103 99 98
180 178 182 180 178 184 182 179 177 176 172 170 157 165 157 142 142 141 147 144 137 138 134 131 132 130 130 128 127 127 128 117 115 118 118 119 130 128 119 112 105 102 97
183 179 186 183 183 189 188 185 179 176 170 168 158 153 147 133 133 141 150 154 149 147 136 134 130 129 131 128 128 131 130 117 120 119 117 115 123 124 121 111 107 107 105
186 186 187 187 184 187 184 182 183 176 166 167 164 156 153 137 140 142 144 141 143 143 139 135 130 129 127 127 131 132 128 117 119 117 120 118 120 119 115 111 109 108 108
187 182 185 190 186 185 180 176 175 178 167 161 154 154 149 151 151 144 143 143 137 133 130 128 128 126 129 131 129 128 119 115 110 109 114 124 125 120 117 114 111 105 105
187 182 184 186 184 185 176 165 155 154 162 162 160 155 151 151 147 147 144 143 139 137 136 134 133 131 133 131 128 123 109 104 105 106 107 118 119 116 114 114 114 108 107
185 186 182 176 176 173 159 161 154 152 152 153 154 148 138 136 141 134 147 151 143 143 142 138 140 142 137 133 128 120 105 102 95 103 112 122 117 115 107 102 101 102 102
178 179 181 174 161 157 155 154 154 153 149 148 150 153 143 138 137 137 136 139 138 144 145 154 146 135 129 123 117 104 106 102 93 99 115 119 109 107 103 98 97 94 93
180 175 170 166 161 162 153 155 155 155 157 156 159 162 160 157 151 149 143 141 142 146 148 151 139 134 128 128 117 111 109 101 94 98 112 116 112 106 103 100 96 90 88
185 183 176 167 166 168 167 166 165 158 159 160 163 165 163 165 160 155 156 153 153 151 150 144 143 134 125 117 115 112 110 104 108 106 107 104 102 102 101 98 94 91 87
188 184 182 176 175 173 173 169 165 166 168 170 169 171 170 162 159 163 159 161 162 157 150 144 141 139 134 135 128 124 121 114 109 104 96 101 99 97 96 97 98 96 93
190 191 184 184 176 174 176 174 172 171 173 177 175 175 175 171 168 166 167 166 168 161 159 155 150 143 136 131 125 123 123 116 116 109 102 94 93 92 93 93 96 95 92
195 194 189 183 180 180 171 175 177 177 177 179 179 179 178 180 175 171 169 167 166 163 155 156 149 141 136 133 128 121 116 112 108 113 113 106 102 91 88 91 94 92 91
195 197 194 189 186 187 181 180 179 181 181 181 183 184 183 184 188 181 178 174 172 168 163 155 150 141 134 127 121 118 106 111 107 108 111 108 95 91 85 85 90 91 90
204 194 195 195 192 190 187 184 185 186 187 187 187 188 188 191 189 191 185 178 172 169 168 163 145 145 132 122 114 114 104 98 97 99 98 98 104 100 96 88 86 87 89
200 199 201 199 196 190 186 181 181 181 182 187 188 191 190 190 188 186 180 174 173 167 162 159 156 140 133 126 116 105 98 96 99 98 93 92 94 99 105 102 91 87 87
205 190 208 205 197 192 182 174 175 176 181 183 188 188 189 188 185 186 182 178 177 174 165 161 149 141 134 135 114 100 92 91 90 92 96 98 97 99 99 99 103 102 91
211 203 196 204 201 194 184 180 181 179 181 183 185 186 188 190 188 185 181 177 176 171 163 164 159 144 146 153 141 121 133 107 88 93 102 106 105 105 99 95 97 102 102
222 213 196 199 196 190 193 187 178 176 169 170 178 184 186 189 189 189 184 180 176 175 173 172 167 158 157 173 163 138 152 155 141 125 111 115 113 113 110 101 100 104 105
253 226 206 196 196 195 194 190 175 169 159 176 178 185 187 188 189 189 187 183 177 176 176 176 174 173 168 157 169 155 123 136 162 157 175 145 129 120 120 115 106 106 109
360 285 198 166 187 191 193 192 183 169 177 174 172 179 180 181 188 187 182 180 176 177 176 177 178 178 177 168 170 149 125 126 139 151 162 171 160 140 131 131 125 122 117
23 32 59 126 140 183 187 186 190 189 171 163 173 179 180 176 178 184 179 181 180 180 178 180 180 176 176 176 172 165 162 162 167 151 149 166 165 168 157 152 146 140 134